星链-36635(STARLINK-36635)

导读 | 豆包AI

STARLINK-36635是美国星链互联网卫星星座的一员,于2026年1月29日发射入轨。星链项目旨在打造全球卫星互联网,该卫星将补充星座网络容量,为全球偏远、基础设施薄弱地区以及移动场景提供低延迟宽带互联网服务,延续 SpaceX 全球组网部署节奏,支撑星链持续扩展服务覆盖与性能。

基本信息
目录编号:
67601
目录名称:
STARLINK-36635
国际标识:
2026-018N
轨道中心:
EARTH
卫星名称:
星链-36635
卫星全名:
星链-36635(STARLINK-36635)
卫星状态:
在轨 (已飞行44 天)
发射日期:
2026-01-29 UTC
国别 :
美国 (US)
星等 :
--
轨道信息
数据来源 国际轨道数据
星历时间: 2026-03-14T06:00:02+0800
6小时前
查看轨道信息
半长轴: 6758.949km
偏心率: 0.0001485
轨道倾角: 97.285°
近地点辐角 66.641°
升交点赤经 138.948°
平近点角 306.710°
近地点: 379.808km
远地点: 381.816km
周期: 92.168分钟
每日圈数: 15.623706
详细信息
固有亮度:
5
最大亮度:
2.5
卫星平台:
Starlink V1.0
覆盖范围:
全球
运营商:
太空探索技术公司
运营商所在国:
美国
制造商(研发单位):
太空探索技术公司
制造商所在国:
美国
使用方式:
暂无
卫星简介
Starlink 计划是 SpaceX 推出的全球卫星互联网项目,通过发射低轨道卫星,为全球尤其是偏远地区提供高速、低延迟的互联网服务。自 2019 年起,Starlink 已部署数千颗卫星,旨在缩小全球数字鸿沟,推动互联网普及。该项目还为军事、航空等行业提供通信支持,带来广泛经济效益。
2D轨道图
3D轨道图
轨道高度分析图
轨道倾角分析图
轨道综合分析图
查看轨道综合分析图